Wind_Speed
21 20 20 21 21 22 23 23 23 23 24 26 28 31 33 33 34 33 33 33 33 32 31 30 28 25 23 22 21 21 20 20 20 19 18 17 17 18 18 17 17 17
18 18 18 18 19 19 20 20 20 22 23 25 27 29 31 33 33 33 34 35 35 34 33 32 28 24 24 24 23 22 21 20 20 19 19 19 18 19 17 16 16 17
18 18 17 17 17 18 18 19 21 24 25 25 26 28 30 31 32 31 33 35 35 34 32 32 30 27 25 25 24 23 22 21 20 19 19 19 19 19 17 17 18 17
18 18 18 18 18 19 19 20 22 23 24 25 25 27 30 32 33 32 32 34 35 34 32 32 32 29 26 24 25 26 23 21 21 20 20 20 20 19 18 18 18 17
18 18 19 19 20 20 21 22 22 23 24 26 27 29 31 33 35 34 32 33 34 35 34 32 30 28 26 25 26 26 24 22 20 20 19 19 19 19 19 18 18 18
18 19 19 20 21 21 21 22 23 24 26 28 29 31 34 36 38 37 34 34 36 36 36 33 29 27 26 26 26 26 24 21 19 19 19 19 19 19 19 19 19 19
18 19 19 20 20 21 21 22 23 25 27 29 30 32 35 38 41 40 36 35 35 34 33 31 27 26 25 24 26 27 25 22 19 19 19 19 19 20 20 20 20 20
19 20 20 20 20 20 21 21 23 25 27 29 31 32 34 38 41 40 35 32 31 29 28 27 25 25 25 23 26 28 25 21 19 18 19 19 19 19 20 20 21 21
19 20 21 20 20 20 20 21 22 24 26 28 30 31 33 37 40 37 32 30 29 26 26 25 22 22 23 23 25 28 25 22 20 19 19 18 19 19 19 20 21 20
20 21 21 21 21 21 21 22 23 25 27 28 29 30 33 38 39 32 28 28 27 25 25 23 21 21 22 22 24 26 25 22 21 20 19 18 19 19 19 20 20 20
21 22 22 22 21 22 22 23 24 25 26 27 28 30 31 36 37 28 23 25 27 26 25 22 21 22 23 23 24 26 25 23 22 21 19 18 19 19 19 20 20 21
22 23 23 22 22 23 23 24 23 24 25 25 27 29 29 34 35 25 21 23 25 24 24 23 21 22 23 23 26 27 26 24 23 21 19 18 19 19 19 19 20 20
23 23 23 23 23 23 23 23 23 23 23 25 27 28 28 31 31 22 19 23 24 23 23 23 22 21 22 24 25 25 24 22 21 19 18 18 18 18 19 19 19 20
24 24 24 23 23 23 22 23 22 22 23 24 26 27 27 28 27 18 16 21 22 22 22 23 23 23 23 24 24 23 22 20 18 16 15 16 17 18 18 19 19 20
24 24 24 23 22 21 21 21 22 22 22 23 25 26 26 26 26 18 15 18 16 19 21 22 22 23 23 23 22 22 22 19 16 15 15 16 16 17 18 19 20 20
24 24 24 23 22 21 20 20 20 21 21 22 24 26 26 26 26 20 17 17 13 13 18 19 19 20 20 20 19 19 19 19 17 15 16 16 16 17 18 19 19 20
23 23 23 23 22 21 20 20 20 20 20 21 23 25 26 26 24 20 17 19 16 13 14 15 15 16 17 18 18 19 19 19 17 16 15 16 17 17 17 18 18 20
23 23 23 23 23 23 22 21 21 20 20 20 21 23 24 25 24 19 17 17 18 18 18 16 13 13 16 18 18 20 22 20 17 16 16 16 17 16 17 18 19 20
23 23 24 24 24 25 24 23 22 21 20 20 20 21 22 23 24 22 18 16 17 20 22 21 18 16 17 17 17 20 22 21 19 19 18 18 17 16 17 19 19 19
22 22 23 24 24 25 25 24 24 23 21 21 20 21 22 22 23 24 23 20 18 19 20 21 21 22 21 19 19 20 22 22 21 22 21 20 20 19 19 19 19 20
20 20 21 22 22 23 23 24 24 23 22 21 20 20 21 22 22 23 25 25 24 21 21 19 19 21 23 24 23 22 23 24 24 24 23 21 21 21 21 21 21 21
17 17 18 18 19 20 21 21 22 22 23 22 21 20 20 21 21 21 23 27 28 28 27 25 22 22 24 26 26 26 26 26 26 26 25 23 22 22 23 22 22 22
16 16 16 16 17 17 18 19 20 20 21 22 21 20 20 21 21 20 21 24 27 30 30 30 29 28 27 27 27 27 28 28 28 28 27 26 24 23 24 23 21 20
17 17 17 17 17 17 17 17 18 19 19 19 20 20 19 20 21 21 20 20 22 26 29 30 31 32 32 30 28 28 29 30 30 29 29 28 27 26 26 25 21 20
19 19 19 19 19 18 17 17 17 17 18 18 18 18 18 19 20 21 22 21 20 22 25 27 29 31 33 34 33 32 31 31 32 32 31 31 30 29 29 28 24 21
19 20 20 20 20 19 19 18 17 17 17 17 17 17 17 17 18 19 21 21 21 22 23 25 27 28 30 31 33 35 34 33 33 34 34 34 33 32 32 30 26 24
Wind_Direction
299 301 302 303 304 304 303 304 306 307 306 303 301 297 294 291 288 285 282 278 275 273 271 267 263 263 265 262 256 251 247 249 251 248 245 242 238 236 234 236 240 241
302 304 305 306 306 305 305 306 308 308 306 305 304 304 304 299 291 286 283 277 272 271 270 265 260 260 264 261 254 248 242 243 246 245 242 237 235 235 234 239 242 240
303 305 306 305 305 303 303 306 308 308 307 307 308 312 314 307 296 288 283 275 270 269 267 263 260 258 257 255 251 246 240 239 241 241 240 237 236 235 233 237 239 238
303 303 302 302 302 300 300 302 304 305 307 310 313 316 319 315 305 294 285 275 269 267 265 260 256 254 251 248 247 242 235 233 236 239 239 237 237 237 235 239 241 239
300 300 299 299 298 297 297 297 298 300 303 306 310 314 317 318 312 302 288 276 268 266 263 256 248 248 248 244 242 239 231 228 233 236 239 239 239 239 238 239 240 238
298 299 299 298 296 294 293 293 294 296 297 300 305 307 311 316 315 308 292 275 267 265 262 254 243 243 245 241 241 240 231 227 231 234 236 237 238 238 237 237 239 240
299 301 302 300 297 294 293 292 293 295 295 297 301 303 306 313 316 311 296 277 267 261 255 248 242 242 243 240 241 241 231 223 224 230 234 234 235 235 233 236 239 241
300 303 304 302 299 295 294 294 296 298 298 298 300 300 304 312 315 309 297 281 269 260 252 246 244 244 242 240 240 238 232 226 222 226 231 232 233 234 232 234 238 239
300 301 302 301 299 295 294 296 299 302 303 301 301 300 304 313 314 306 295 282 269 264 258 250 244 243 242 239 238 233 228 226 225 224 227 230 232 233 231 233 236 238
299 300 301 300 298 296 295 298 301 305 306 304 304 303 307 318 318 304 291 281 268 263 262 254 245 243 241 237 236 233 227 224 223 224 224 227 229 229 229 232 236 237
297 298 299 299 299 298 298 300 303 305 307 306 306 305 311 323 322 306 287 277 266 259 259 256 248 242 239 234 232 234 233 225 220 221 222 224 227 228 230 232 236 239
297 298 299 300 300 300 301 303 304 306 308 307 307 307 314 327 327 310 285 273 265 257 255 255 250 240 237 236 232 231 231 224 218 217 219 222 227 230 232 234 236 240
297 299 301 302 302 303 304 305 306 307 309 308 309 309 315 329 333 317 284 271 264 257 253 252 249 241 237 240 239 238 236 229 221 218 218 224 230 233 234 237 239 243
299 301 303 303 304 304 304 307 307 308 310 308 309 311 313 326 336 323 287 276 264 250 247 247 243 239 238 240 242 243 242 236 227 222 224 228 232 237 240 239 240 242
299 301 303 304 305 306 306 308 308 309 311 309 308 309 309 319 331 321 285 277 263 243 245 246 239 237 238 239 239 238 241 242 231 221 226 233 235 238 244 244 242 242
300 302 304 305 307 308 308 310 310 309 311 311 308 308 306 311 326 326 293 274 261 248 254 253 244 239 238 237 238 238 242 247 241 227 222 229 236 238 241 244 245 245
303 304 306 307 309 311 311 312 313 311 310 310 307 305 302 303 315 326 310 284 270 266 271 267 255 244 237 235 236 235 236 241 248 246 230 224 232 239 243 243 242 244
309 310 312 312 312 314 315 315 314 312 310 309 306 302 298 296 299 310 314 298 282 274 274 276 274 258 244 239 232 228 231 235 245 253 246 235 233 234 241 244 241 241
315 316 316 316 316 315 316 316 315 313 310 307 305 301 297 291 287 289 295 298 292 281 271 267 268 263 255 249 239 230 233 239 243 246 247 247 244 237 238 244 243 241
320 320 319 320 319 318 317 317 315 314 311 307 303 300 297 292 284 279 279 282 286 287 279 267 259 256 254 251 244 236 235 238 243 245 245 247 249 245 240 239 241 242
323 323 323 323 323 322 321 319 317 316 314 311 306 299 296 293 287 279 273 272 272 275 278 275 267 261 257 252 246 242 240 239 241 246 247 247 250 251 247 243 241 240
325 325 326 327 327 327 324 322 320 318 316 315 312 304 298 295 292 284 275 270 268 266 268 270 270 268 266 260 251 246 244 242 242 244 247 247 248 251 252 249 246 244
327 327 329 330 330 330 327 324 322 320 317 316 315 311 304 297 295 291 283 274 269 266 265 266 266 266 267 266 259 253 249 247 245 245 247 248 247 249 251 251 249 249
328 328 329 331 332 331 329 327 325 322 320 318 315 313 309 302 298 295 292 285 277 272 268 265 264 262 261 261 261 258 255 253 250 248 247 249 249 249 251 251 248 248
329 328 328 329 331 331 330 329 328 326 325 322 318 315 311 307 303 298 295 292 287 282 277 272 269 264 261 259 258 258 257 255 253 250 248 249 251 251 250 249 247 245
331 329 328 329 329 330 331 330 330 329 327 326 324 320 315 310 307 303 299 295 290 285 281 277 274 271 266 262 257 254 254 255 255 252 249 248 250 252 253 253 252 250
Height
3134 3134 3133 3132 3131 3130 3129 3127 3126 3125 3124 3122 3120 3118 3116 3115 3114 3114 3114 3113 3114 3114 3113 3113 3112 3111 3111 3111 3112 3111 3111 3111 3112 3113 3114 3114 3114 3115 3116 3118 3119 3120
3133 3132 3131 3131 3130 3128 3127 3126 3125 3123 3122 3121 3119 3117 3114 3112 3111 3112 3111 3110 3110 3110 3110 3110 3110 3109 3108 3109 3109 3109 3108 3109 3110 3111 3112 3113 3113 3114 3115 3116 3118 3118
3131 3130 3130 3129 3128 3127 3125 3124 3123 3121 3120 3119 3117 3115 3113 3110 3109 3110 3110 3107 3106 3105 3106 3108 3107 3106 3105 3105 3106 3106 3105 3106 3108 3109 3110 3111 3112 3112 3113 3115 3115 3116
3129 3128 3128 3127 3126 3125 3124 3123 3121 3119 3118 3116 3115 3113 3111 3109 3106 3107 3107 3106 3103 3101 3102 3104 3103 3102 3101 3100 3101 3102 3102 3103 3105 3106 3108 3109 3110 3111 3112 3112 3113 3115
3127 3127 3126 3125 3124 3123 3122 3120 3119 3118 3116 3114 3113 3111 3109 3107 3104 3103 3103 3102 3100 3098 3098 3100 3100 3099 3098 3097 3097 3098 3099 3100 3102 3104 3105 3107 3108 3109 3110 3111 3111 3113
3126 3125 3124 3123 3122 3121 3120 3118 3117 3115 3114 3112 3110 3109 3107 3105 3102 3099 3098 3097 3096 3095 3095 3096 3097 3097 3096 3095 3094 3095 3096 3096 3098 3101 3103 3105 3106 3107 3108 3109 3110 3111
3124 3123 3122 3121 3120 3119 3117 3116 3114 3113 3111 3109 3108 3107 3104 3101 3098 3095 3093 3092 3092 3092 3092 3092 3094 3095 3095 3094 3093 3094 3095 3094 3095 3098 3100 3102 3104 3105 3106 3107 3107 3108
3122 3121 3120 3119 3118 3117 3115 3114 3112 3111 3109 3107 3106 3104 3102 3099 3095 3091 3089 3088 3089 3090 3090 3090 3091 3092 3092 3092 3092 3093 3094 3093 3093 3096 3098 3100 3101 3102 3104 3105 3105 3106
3120 3119 3118 3117 3116 3115 3113 3112 3110 3108 3107 3105 3103 3101 3099 3096 3091 3087 3084 3084 3085 3087 3088 3088 3089 3089 3088 3089 3090 3091 3091 3091 3091 3093 3095 3097 3098 3100 3101 3102 3103 3103
3118 3117 3116 3115 3114 3112 3111 3109 3108 3106 3104 3102 3100 3099 3096 3093 3087 3083 3081 3081 3082 3084 3085 3086 3087 3087 3086 3087 3088 3088 3089 3088 3089 3090 3092 3094 3095 3097 3098 3099 3100 3100
3115 3114 3113 3112 3111 3110 3108 3107 3105 3103 3102 3100 3098 3096 3094 3090 3084 3080 3079 3079 3079 3081 3082 3083 3084 3085 3085 3085 3086 3087 3087 3087 3087 3087 3089 3091 3092 3094 3096 3097 3098 3098
3113 3112 3111 3109 3108 3107 3106 3104 3103 3101 3099 3097 3095 3093 3092 3088 3082 3078 3077 3077 3077 3078 3080 3081 3081 3082 3083 3083 3084 3085 3086 3085 3084 3084 3086 3088 3090 3092 3093 3095 3096 3096
3110 3109 3108 3107 3105 3104 3103 3101 3100 3098 3096 3094 3092 3091 3089 3086 3081 3077 3076 3076 3075 3076 3078 3079 3079 3080 3081 3082 3082 3083 3084 3083 3081 3081 3083 3086 3088 3090 3091 3093 3094 3094
3108 3106 3105 3104 3103 3102 3100 3099 3097 3095 3094 3092 3090 3088 3086 3084 3082 3079 3076 3074 3073 3074 3076 3076 3077 3079 3079 3080 3081 3082 3083 3082 3080 3080 3082 3084 3086 3088 3089 3090 3091 3092
3105 3104 3103 3102 3100 3099 3098 3096 3094 3093 3091 3089 3087 3086 3084 3083 3080 3078 3076 3073 3072 3073 3073 3074 3075 3076 3077 3078 3080 3081 3082 3081 3080 3079 3081 3083 3084 3086 3087 3088 3088 3089
3103 3102 3101 3099 3098 3096 3095 3094 3092 3091 3089 3087 3085 3083 3082 3081 3078 3076 3074 3072 3071 3072 3073 3073 3073 3075 3076 3078 3080 3081 3081 3080 3079 3077 3078 3080 3082 3084 3085 3085 3086 3086
3100 3099 3098 3097 3096 3094 3093 3091 3090 3088 3087 3085 3083 3081 3080 3079 3077 3075 3074 3072 3071 3072 3072 3072 3073 3074 3076 3077 3078 3079 3079 3080 3079 3076 3076 3077 3079 3081 3082 3083 3084 3084
3098 3097 3096 3095 3093 3092 3090 3089 3088 3086 3085 3083 3082 3080 3078 3077 3076 3075 3074 3072 3071 3071 3071 3072 3072 3073 3075 3076 3077 3078 3077 3078 3078 3078 3076 3076 3076 3078 3080 3080 3081 3082
3096 3094 3093 3092 3091 3090 3088 3087 3085 3084 3083 3082 3080 3078 3077 3075 3075 3074 3074 3073 3071 3070 3071 3072 3072 3073 3074 3074 3075 3076 3075 3076 3077 3077 3077 3076 3076 3076 3077 3078 3079 3079
3094 3093 3091 3090 3089 3087 3086 3084 3083 3082 3081 3079 3078 3077 3075 3074 3073 3072 3072 3072 3071 3070 3070 3070 3071 3071 3071 3072 3073 3073 3074 3074 3075 3075 3075 3075 3075 3075 3074 3075 3076 3077
3093 3092 3090 3089 3087 3085 3084 3082 3080 3079 3078 3077 3076 3075 3073 3072 3070 3070 3070 3070 3070 3069 3069 3069 3070 3070 3070 3070 3071 3072 3072 3072 3073 3073 3073 3073 3073 3073 3073 3072 3072 3073
3093 3091 3089 3088 3086 3084 3082 3080 3079 3077 3075 3074 3073 3072 3071 3069 3068 3067 3067 3067 3067 3067 3067 3067 3068 3068 3068 3068 3068 3069 3069 3070 3070 3070 3070 3071 3071 3071 3072 3070 3069 3070
3092 3090 3088 3087 3085 3083 3081 3079 3077 3076 3074 3072 3071 3070 3069 3067 3066 3065 3064 3063 3063 3063 3064 3064 3064 3065 3065 3065 3065 3065 3065 3066 3067 3067 3067 3068 3067 3068 3069 3068 3068 3069
3090 3089 3087 3085 3084 3082 3080 3078 3076 3074 3073 3071 3069 3068 3066 3065 3064 3062 3061 3060 3060 3059 3059 3060 3060 3061 3061 3061 3062 3062 3062 3062 3063 3063 3064 3064 3064 3065 3065 3065 3066 3068
3089 3087 3086 3084 3082 3081 3079 3077 3075 3073 3071 3069 3068 3066 3065 3063 3062 3060 3059 3058 3057 3056 3055 3056 3056 3057 3057 3057 3057 3058 3058 3059 3059 3059 3060 3060 3061 3062 3061 3061 3063 3065
3087 3086 3084 3082 3081 3079 3077 3075 3073 3072 3070 3068 3066 3065 3063 3062 3060 3058 3057 3055 3054 3053 3052 3052 3052 3052 3052 3053 3053 3053 3054 3054 3054 3055 3056 3056 3057 3057 3057 3058 3062 3064